RYR5412 EPKK-LFML

Flight info

Callsign RYR5412
Flight time 1h 56m
Altitude 36000
Route TUSIN DCT MIKOV DCT MASUR DCT SBG DCT TRAUN DCT KONIN/N0334F120 L856 ROMIR/N0444F350 L856 TRA DCT LUTIX DCT BENOT DCT NEMOS DCT GEVEA DCT INCUS DCT BALSI
Aircraft B738/M-SDE2E3FGHIRWXY/LB1

Departure

Time 2026-04-30 19:27
Airport Kraków John Paul II International Airport (EPKK)

Arrival

Time 2026-04-30 21:23
Airport Marseille Provence Airport (LFML)
Time Latitude Longitude Altitude Speed Heading
2026-04-30 18:57 50.07293 19.79886 799 ft 0 kts 167°
2026-04-30 19:16 50.07297 19.79885 799 ft 3 kts 167°
2026-04-30 19:16 50.07347 19.79868 799 ft 4 kts 166°
2026-04-30 19:17 50.07367 19.79852 799 ft 4 kts 113°
2026-04-30 19:17 50.07367 19.79803 799 ft 0 kts 77°
2026-04-30 19:22 50.07368 19.79805 799 ft 1 kts 77°
2026-04-30 19:22 50.07406 19.80070 799 ft 11 kts 77°
2026-04-30 19:23 50.07484 19.80385 799 ft 10 kts 17°
2026-04-30 19:24 50.07622 19.80411 799 ft 10 kts 347°
2026-04-30 19:24 50.07687 19.80388 799 ft 10 kts 347°
2026-04-30 19:24 50.07823 19.80343 799 ft 12 kts 348°
2026-04-30 19:25 50.08015 19.80252 799 ft 8 kts 311°
2026-04-30 19:26 50.08004 19.80141 800 ft 0 kts 256°
2026-04-30 19:26 50.07933 19.79624 800 ft 82 kts 258°
2026-04-30 19:26 50.07765 19.78414 801 ft 144 kts 258°
2026-04-30 19:27 50.07297 19.74992 1893 ft 169 kts 260°
2026-04-30 19:27 50.06775 19.71226 3063 ft 200 kts 261°
2026-04-30 19:28 50.06456 19.68968 3325 ft 226 kts 260°
2026-04-30 19:28 50.05723 19.63799 4047 ft 262 kts 260°
2026-04-30 19:29 50.04920 19.58154 5044 ft 270 kts 260°
2026-04-30 19:29 50.04506 19.55286 5792 ft 273 kts 258°
2026-04-30 19:30 50.02803 19.46608 8236 ft 289 kts 255°
2026-04-30 19:30 50.01572 19.40542 9846 ft 299 kts 256°
2026-04-30 19:31 50.00295 19.34169 10875 ft 328 kts 256°
2026-04-30 19:31 49.99599 19.30672 11150 ft 349 kts 256°
2026-04-30 19:31 49.98133 19.23346 12446 ft 363 kts 256°
2026-04-30 19:32 49.97374 19.19567 13198 ft 369 kts 256°
2026-04-30 19:32 49.96601 19.15721 13949 ft 375 kts 256°
2026-04-30 19:32 49.95817 19.11820 14635 ft 381 kts 256°
2026-04-30 19:32 49.95022 19.07872 15383 ft 386 kts 256°
2026-04-30 19:33 49.94216 19.03879 16150 ft 389 kts 256°
2026-04-30 19:33 49.93398 18.99837 16885 ft 394 kts 256°
2026-04-30 19:33 49.92572 18.95757 17591 ft 400 kts 256°
2026-04-30 19:33 49.91734 18.91621 18275 ft 406 kts 257°
2026-04-30 19:34 49.90879 18.87416 18937 ft 411 kts 257°
2026-04-30 19:34 49.90012 18.83161 19542 ft 416 kts 257°
2026-04-30 19:34 49.88240 18.74495 20704 ft 427 kts 257°
2026-04-30 19:35 49.87331 18.70063 21286 ft 433 kts 257°
2026-04-30 19:35 49.86412 18.65590 21860 ft 438 kts 257°
2026-04-30 19:35 49.85479 18.61130 22409 ft 445 kts 254°
2026-04-30 19:35 49.84170 18.56658 22954 ft 455 kts 244°
2026-04-30 19:36 49.82418 18.52610 23523 ft 462 kts 233°
2026-04-30 19:36 49.80359 18.48677 24069 ft 467 kts 231°
2026-04-30 19:36 49.76177 18.40937 24860 ft 478 kts 231°
2026-04-30 19:37 49.74032 18.36965 25320 ft 482 kts 231°
2026-04-30 19:37 49.71882 18.32958 25752 ft 486 kts 231°
2026-04-30 19:37 49.69724 18.28913 26128 ft 491 kts 232°
2026-04-30 19:37 49.67546 18.24815 26529 ft 496 kts 231°
2026-04-30 19:38 49.65344 18.20668 26949 ft 500 kts 232°
2026-04-30 19:38 49.63136 18.16514 27360 ft 503 kts 232°
2026-04-30 19:38 49.60906 18.12321 27777 ft 507 kts 231°
2026-04-30 19:38 49.58671 18.08129 28160 ft 511 kts 231°
2026-04-30 19:39 49.56414 18.03903 28531 ft 515 kts 231°
2026-04-30 19:39 49.54124 17.99626 28906 ft 519 kts 231°
2026-04-30 19:39 49.51820 17.95328 29271 ft 523 kts 231°
2026-04-30 19:39 49.49500 17.91008 29611 ft 526 kts 231°
2026-04-30 19:40 49.47154 17.86646 29989 ft 530 kts 231°
2026-04-30 19:40 49.44799 17.82276 30387 ft 532 kts 231°
2026-04-30 19:40 49.42452 17.77928 30680 ft 535 kts 231°
2026-04-30 19:40 49.40077 17.73534 31020 ft 536 kts 231°
2026-04-30 19:41 49.37689 17.69125 31391 ft 537 kts 231°
2026-04-30 19:41 49.35301 17.64724 31738 ft 537 kts 231°
2026-04-30 19:41 49.32908 17.60320 32102 ft 537 kts 231°
2026-04-30 19:41 49.30521 17.55933 32569 ft 534 kts 231°
2026-04-30 19:42 49.28159 17.51602 33384 ft 523 kts 231°
2026-04-30 19:42 49.25851 17.47376 34159 ft 514 kts 231°
2026-04-30 19:42 49.23557 17.43182 34550 ft 513 kts 231°
2026-04-30 19:42 49.21259 17.38986 34758 ft 516 kts 231°
2026-04-30 19:43 49.18948 17.34772 35002 ft 517 kts 231°
2026-04-30 19:43 49.16638 17.30567 35381 ft 514 kts 231°
2026-04-30 19:43 49.14345 17.26401 35830 ft 510 kts 231°
2026-04-30 19:44 49.09812 17.18185 36674 ft 503 kts 231°
2026-04-30 19:44 49.07561 17.14115 37015 ft 501 kts 231°
2026-04-30 19:44 49.05313 17.10055 37305 ft 500 kts 231°
2026-04-30 19:44 49.03070 17.06011 37610 ft 499 kts 231°
2026-04-30 19:45 49.00831 17.01978 37945 ft 497 kts 231°
2026-04-30 19:45 48.98597 16.97964 38290 ft 495 kts 231°
2026-04-30 19:45 48.96406 16.94031 38619 ft 493 kts 231°
2026-04-30 19:45 48.94185 16.90051 38869 ft 492 kts 231°
2026-04-30 19:46 48.91961 16.86069 39036 ft 494 kts 231°
2026-04-30 19:46 48.89736 16.82092 39198 ft 494 kts 231°
2026-04-30 19:46 48.87504 16.78109 39383 ft 494 kts 231°
2026-04-30 19:47 48.83022 16.70125 39386 ft 498 kts 231°
2026-04-30 19:47 48.78848 16.61833 39371 ft 489 kts 243°
2026-04-30 19:48 48.76253 16.52487 39390 ft 481 kts 256°
2026-04-30 19:48 48.74214 16.42843 39379 ft 480 kts 256°
2026-04-30 19:49 48.72157 16.33267 39376 ft 481 kts 255°
2026-04-30 19:49 48.68974 16.18859 39370 ft 481 kts 255°
2026-04-30 19:50 48.66825 16.09236 39380 ft 483 kts 255°
2026-04-30 19:50 48.64665 15.99596 39383 ft 484 kts 255°
2026-04-30 19:51 48.62494 15.89947 39384 ft 485 kts 255°
2026-04-30 19:51 48.60308 15.80277 39385 ft 487 kts 255°
2026-04-30 19:52 48.58109 15.70588 39378 ft 487 kts 254°
2026-04-30 19:52 48.55901 15.60908 39392 ft 488 kts 254°
2026-04-30 19:53 48.53682 15.51215 39383 ft 489 kts 254°
2026-04-30 19:53 48.51499 15.41576 39396 ft 488 kts 256°
2026-04-30 19:54 48.49585 15.31788 39378 ft 487 kts 258°
2026-04-30 19:54 48.47760 15.21962 39384 ft 487 kts 258°
2026-04-30 19:55 48.45907 15.12159 39392 ft 486 kts 257°
2026-04-30 19:55 48.44023 15.02393 39395 ft 485 kts 257°
2026-04-30 19:56 48.42125 14.92659 39396 ft 484 kts 257°
2026-04-30 19:56 48.40220 14.82938 39391 ft 483 kts 257°
2026-04-30 19:57 48.38315 14.73253 39391 ft 482 kts 257°
2026-04-30 19:57 48.36405 14.63595 39395 ft 482 kts 257°
2026-04-30 19:58 48.34493 14.53969 39395 ft 481 kts 257°
2026-04-30 19:58 48.32566 14.44321 39399 ft 482 kts 257°
2026-04-30 19:59 48.30632 14.34682 39397 ft 482 kts 257°
2026-04-30 20:00 48.27723 14.20272 39388 ft 482 kts 257°
2026-04-30 20:00 48.25763 14.10623 39402 ft 483 kts 257°
2026-04-30 20:01 48.23139 13.97776 39380 ft 485 kts 257°
2026-04-30 20:01 48.21150 13.88099 39383 ft 485 kts 256°
2026-04-30 20:02 48.18149 13.73577 39369 ft 486 kts 257°
2026-04-30 20:03 48.15130 13.59078 39375 ft 486 kts 256°
2026-04-30 20:03 48.13119 13.49478 39374 ft 486 kts 256°
2026-04-30 20:04 48.11078 13.39779 39374 ft 485 kts 256°
2026-04-30 20:05 48.08039 13.25423 39368 ft 484 kts 257°
2026-04-30 20:05 48.04976 13.11055 39368 ft 482 kts 257°
2026-04-30 20:06 48.02931 13.01512 39365 ft 482 kts 257°
2026-04-30 20:06 48.00881 12.91989 39371 ft 481 kts 257°
2026-04-30 20:07 47.99543 12.82337 39370 ft 472 kts 268°
2026-04-30 20:08 47.98336 12.67800 39365 ft 472 kts 268°
2026-04-30 20:08 47.97437 12.58082 39362 ft 473 kts 268°
2026-04-30 20:09 47.96527 12.48357 39364 ft 472 kts 267°
2026-04-30 20:09 47.95167 12.33809 39362 ft 473 kts 267°
2026-04-30 20:10 47.93783 12.19217 39363 ft 473 kts 267°
2026-04-30 20:11 47.92385 12.04686 39360 ft 474 kts 267°
2026-04-30 20:11 47.91436 11.94939 39359 ft 474 kts 267°
2026-04-30 20:12 47.89998 11.80334 39349 ft 474 kts 267°
2026-04-30 20:13 47.89029 11.70606 39348 ft 474 kts 267°
2026-04-30 20:13 47.88055 11.60896 39347 ft 474 kts 267°
2026-04-30 20:14 47.87070 11.51172 39343 ft 474 kts 266°
2026-04-30 20:14 47.86085 11.41516 39341 ft 473 kts 266°
2026-04-30 20:15 47.85090 11.31835 39335 ft 473 kts 266°
2026-04-30 20:15 47.84097 11.22148 39332 ft 472 kts 266°
2026-04-30 20:16 47.83101 11.12492 39324 ft 472 kts 266°
2026-04-30 20:16 47.82083 11.02838 39299 ft 471 kts 266°
2026-04-30 20:17 47.81043 10.93221 39323 ft 471 kts 266°
2026-04-30 20:17 47.79995 10.83591 39330 ft 471 kts 266°
2026-04-30 20:18 47.78944 10.73970 39326 ft 472 kts 266°
2026-04-30 20:18 47.77888 10.64388 39322 ft 472 kts 265°
2026-04-30 20:19 47.76820 10.54767 39303 ft 472 kts 265°
2026-04-30 20:19 47.75742 10.45129 39302 ft 472 kts 265°
2026-04-30 20:20 47.74665 10.35508 39302 ft 471 kts 266°
2026-04-30 20:20 47.74261 10.25873 39296 ft 466 kts 274°
2026-04-30 20:21 47.74143 10.16226 39287 ft 467 kts 274°
2026-04-30 20:21 47.73945 10.06577 39274 ft 467 kts 272°
2026-04-30 20:22 47.73704 9.97001 39282 ft 467 kts 272°
2026-04-30 20:22 47.73454 9.87403 39273 ft 466 kts 272°
2026-04-30 20:23 47.73198 9.77771 39268 ft 466 kts 272°
2026-04-30 20:23 47.72938 9.68234 39246 ft 466 kts 272°
2026-04-30 20:24 47.72687 9.58625 39264 ft 465 kts 272°
2026-04-30 20:24 47.72420 9.49090 39267 ft 465 kts 271°
2026-04-30 20:25 47.71982 9.34703 39272 ft 465 kts 272°
2026-04-30 20:26 47.71617 9.20335 39274 ft 464 kts 271°
2026-04-30 20:26 47.71143 9.05947 39287 ft 464 kts 271°
2026-04-30 20:27 47.70520 8.86801 39292 ft 464 kts 271°
2026-04-30 20:28 47.69866 8.67688 39293 ft 464 kts 270°
2026-04-30 20:30 47.68293 8.43902 39296 ft 469 kts 252°
2026-04-30 20:30 47.63222 8.31458 39294 ft 472 kts 234°
2026-04-30 20:31 47.57376 8.19730 39281 ft 471 kts 235°
2026-04-30 20:32 47.48020 8.00645 39268 ft 470 kts 236°
2026-04-30 20:33 47.42295 7.88988 39249 ft 467 kts 236°
2026-04-30 20:34 47.36562 7.77373 39249 ft 465 kts 235°
2026-04-30 20:35 47.30844 7.65838 39260 ft 463 kts 235°
2026-04-30 20:35 47.25144 7.54386 39241 ft 461 kts 235°
2026-04-30 20:36 47.21352 7.46791 39240 ft 460 kts 235°
2026-04-30 20:37 47.15696 7.35518 39237 ft 457 kts 234°
2026-04-30 20:37 47.11735 7.28188 39240 ft 456 kts 232°
2026-04-30 20:38 47.07765 7.20937 39237 ft 455 kts 233°
2026-04-30 20:38 47.03814 7.13661 39250 ft 454 kts 232°
2026-04-30 20:39 46.97888 7.02858 39236 ft 453 kts 232°
2026-04-30 20:40 46.91982 6.92135 39237 ft 453 kts 231°
2026-04-30 20:40 46.87364 6.85883 39247 ft 453 kts 220°
2026-04-30 20:41 46.79957 6.77240 39244 ft 454 kts 220°
2026-04-30 20:41 46.75034 6.71442 39226 ft 456 kts 220°
2026-04-30 20:42 46.70111 6.65608 39235 ft 456 kts 220°
2026-04-30 20:43 46.62703 6.56843 39228 ft 458 kts 220°
2026-04-30 20:43 46.57783 6.51040 39225 ft 459 kts 220°
2026-04-30 20:44 46.50335 6.42285 39230 ft 459 kts 219°
2026-04-30 20:45 46.40391 6.30647 39230 ft 458 kts 219°
2026-04-30 20:45 46.35436 6.24867 39237 ft 456 kts 219°
2026-04-30 20:46 46.25235 6.14114 39244 ft 453 kts 204°
2026-04-30 20:47 46.19203 6.11646 39245 ft 452 kts 189°
2026-04-30 20:47 46.16094 6.10990 39240 ft 451 kts 188°
2026-04-30 20:48 46.07817 6.09297 39214 ft 450 kts 189°
2026-04-30 20:48 46.01620 6.07952 39209 ft 450 kts 189°
2026-04-30 20:49 45.95442 6.06587 39207 ft 450 kts 189°
2026-04-30 20:50 45.86146 6.04542 39216 ft 451 kts 189°
2026-04-30 20:50 45.79925 6.03180 39217 ft 452 kts 189°
2026-04-30 20:51 45.73682 6.01827 39218 ft 454 kts 189°
2026-04-30 20:51 45.64281 5.99808 39208 ft 456 kts 189°
2026-04-30 20:52 45.57990 5.98468 39208 ft 457 kts 189°
2026-04-30 20:52 45.51747 5.97043 39189 ft 443 kts 191°
2026-04-30 20:53 45.48819 5.96044 39179 ft 424 kts 205°
2026-04-30 20:53 45.46290 5.94043 39032 ft 415 kts 220°
2026-04-30 20:53 45.44164 5.91185 38502 ft 427 kts 227°
2026-04-30 20:54 45.39876 5.84888 37473 ft 450 kts 227°
2026-04-30 20:54 45.37710 5.81736 36824 ft 442 kts 227°
2026-04-30 20:54 45.35597 5.78687 36074 ft 440 kts 226°
2026-04-30 20:55 45.31290 5.72522 34435 ft 439 kts 225°
2026-04-30 20:55 45.29142 5.69461 33732 ft 435 kts 225°
2026-04-30 20:55 45.27025 5.66449 33061 ft 429 kts 225°
2026-04-30 20:56 45.22843 5.60507 31673 ft 422 kts 225°
2026-04-30 20:56 45.20774 5.57570 31220 ft 419 kts 225°
2026-04-30 20:56 45.16682 5.51771 30316 ft 413 kts 225°
2026-04-30 20:57 45.14656 5.48903 29804 ft 410 kts 225°
2026-04-30 20:57 45.12647 5.46064 29381 ft 405 kts 225°
2026-04-30 20:57 45.10617 5.43343 29082 ft 397 kts 213°
2026-04-30 20:58 45.04146 5.36272 28827 ft 395 kts 225°
2026-04-30 20:58 45.02229 5.33482 28545 ft 396 kts 225°
2026-04-30 20:58 45.00323 5.30654 28271 ft 395 kts 225°
2026-04-30 20:59 44.96575 5.25087 27429 ft 387 kts 226°
2026-04-30 20:59 44.94717 5.22345 27014 ft 384 kts 226°
2026-04-30 21:00 44.91064 5.16984 26194 ft 378 kts 225°
2026-04-30 21:00 44.87427 5.11670 25395 ft 373 kts 225°
2026-04-30 21:01 44.83834 5.06431 24597 ft 370 kts 225°
2026-04-30 21:01 44.82051 5.03835 24200 ft 368 kts 225°
2026-04-30 21:01 44.78497 4.98665 23314 ft 365 kts 225°
2026-04-30 21:02 44.76728 4.96095 22889 ft 363 kts 225°
2026-04-30 21:02 44.74978 4.93556 22481 ft 360 kts 225°
2026-04-30 21:02 44.73238 4.91041 22101 ft 357 kts 224°
2026-04-30 21:02 44.71269 4.88977 21775 ft 351 kts 206°
2026-04-30 21:03 44.69124 4.87495 21421 ft 347 kts 205°
2026-04-30 21:03 44.66962 4.86020 21066 ft 344 kts 205°
2026-04-30 21:03 44.64782 4.84519 20680 ft 342 kts 206°
2026-04-30 21:03 44.62656 4.83035 20309 ft 341 kts 206°
2026-04-30 21:04 44.60541 4.81547 19941 ft 339 kts 206°
2026-04-30 21:04 44.58436 4.80063 19568 ft 338 kts 207°
2026-04-30 21:04 44.54171 4.77503 18800 ft 336 kts 192°
2026-04-30 21:05 44.51867 4.76932 18398 ft 336 kts 189°
2026-04-30 21:05 44.49555 4.76433 17983 ft 335 kts 189°
2026-04-30 21:05 44.47254 4.75940 17579 ft 333 kts 189°
2026-04-30 21:05 44.44970 4.75439 17198 ft 331 kts 189°
2026-04-30 21:06 44.42704 4.74928 16827 ft 329 kts 189°
2026-04-30 21:06 44.40447 4.74409 16457 ft 327 kts 189°
2026-04-30 21:06 44.38205 4.73886 16093 ft 325 kts 189°
2026-04-30 21:06 44.35979 4.73365 15731 ft 324 kts 189°
2026-04-30 21:07 44.33766 4.72844 15373 ft 322 kts 189°
2026-04-30 21:07 44.31660 4.72349 15033 ft 321 kts 189°
2026-04-30 21:07 44.29466 4.71832 14668 ft 319 kts 189°
2026-04-30 21:07 44.27279 4.71317 14311 ft 318 kts 189°
2026-04-30 21:08 44.25104 4.70805 13947 ft 317 kts 189°
2026-04-30 21:08 44.22936 4.70296 13548 ft 315 kts 189°
2026-04-30 21:08 44.20781 4.69789 13171 ft 313 kts 189°
2026-04-30 21:08 44.18630 4.69284 12806 ft 311 kts 189°
2026-04-30 21:09 44.16498 4.68784 12448 ft 309 kts 189°
2026-04-30 21:09 44.14380 4.68288 12108 ft 307 kts 189°
2026-04-30 21:09 44.12293 4.67926 11751 ft 306 kts 178°
2026-04-30 21:09 44.10227 4.68518 11431 ft 303 kts 161°
2026-04-30 21:10 44.08273 4.69585 11082 ft 302 kts 157°
2026-04-30 21:10 44.06345 4.70734 10736 ft 300 kts 157°
2026-04-30 21:10 44.04447 4.71848 10593 ft 292 kts 158°
2026-04-30 21:10 44.02595 4.72909 10467 ft 284 kts 158°
2026-04-30 21:11 44.00787 4.73932 10329 ft 276 kts 158°
2026-04-30 21:11 43.99031 4.74920 10197 ft 269 kts 158°
2026-04-30 21:11 43.97299 4.75894 9913 ft 268 kts 158°
2026-04-30 21:11 43.95573 4.76864 9638 ft 266 kts 158°
2026-04-30 21:12 43.93879 4.77816 9367 ft 265 kts 158°
2026-04-30 21:12 43.92176 4.78772 9098 ft 263 kts 158°
2026-04-30 21:12 43.90488 4.79719 8833 ft 261 kts 158°
2026-04-30 21:12 43.88802 4.80664 8556 ft 260 kts 158°
2026-04-30 21:13 43.87133 4.81600 8305 ft 258 kts 158°
2026-04-30 21:13 43.85492 4.82520 8036 ft 257 kts 158°
2026-04-30 21:13 43.83839 4.83445 7773 ft 256 kts 158°
2026-04-30 21:13 43.82189 4.84367 7497 ft 255 kts 158°
2026-04-30 21:14 43.80551 4.85283 7244 ft 254 kts 158°
2026-04-30 21:14 43.78920 4.86198 7020 ft 253 kts 158°
2026-04-30 21:14 43.77268 4.87128 6800 ft 254 kts 158°
2026-04-30 21:14 43.75657 4.88033 6589 ft 253 kts 157°
2026-04-30 21:15 43.74032 4.88945 6346 ft 248 kts 157°
2026-04-30 21:15 43.72460 4.89826 6110 ft 239 kts 155°
2026-04-30 21:15 43.70975 4.90656 6009 ft 220 kts 155°
2026-04-30 21:15 43.69606 4.91436 5817 ft 210 kts 155°
2026-04-30 21:16 43.68275 4.92199 5585 ft 206 kts 155°
2026-04-30 21:16 43.66948 4.92959 5244 ft 205 kts 155°
2026-04-30 21:16 43.65664 4.93691 5041 ft 194 kts 154°
2026-04-30 21:16 43.64475 4.94443 4849 ft 182 kts 142°
2026-04-30 21:17 43.63571 4.95633 4664 ft 177 kts 136°
2026-04-30 21:17 43.62586 4.96729 4324 ft 185 kts 142°
2026-04-30 21:17 43.61534 4.97694 4150 ft 181 kts 144°
2026-04-30 21:17 43.60522 4.98669 4071 ft 174 kts 139°
2026-04-30 21:18 43.59630 4.99719 4019 ft 163 kts 135°
2026-04-30 21:18 43.58793 5.00759 3820 ft 161 kts 136°
2026-04-30 21:18 43.57954 5.01766 3617 ft 159 kts 136°
2026-04-30 21:18 43.57136 5.02780 3414 ft 158 kts 135°
2026-04-30 21:19 43.56327 5.03811 3201 ft 158 kts 134°
2026-04-30 21:19 43.55533 5.04853 2993 ft 158 kts 133°
2026-04-30 21:19 43.54743 5.05908 2779 ft 158 kts 133°
2026-04-30 21:19 43.53970 5.06958 2576 ft 154 kts 132°
2026-04-30 21:20 43.53201 5.08014 2378 ft 157 kts 132°
2026-04-30 21:20 43.52436 5.09076 2153 ft 156 kts 132°
2026-04-30 21:20 43.51699 5.10104 1984 ft 144 kts 132°
2026-04-30 21:20 43.51024 5.11051 1775 ft 137 kts 132°
2026-04-30 21:21 43.50351 5.12000 1602 ft 138 kts 132°
2026-04-30 21:21 43.49675 5.12958 1414 ft 141 kts 132°
2026-04-30 21:21 43.48308 5.14907 1028 ft 142 kts 132°
2026-04-30 21:22 43.47623 5.15890 865 ft 143 kts 131°
2026-04-30 21:22 43.45497 5.18912 287 ft 146 kts 133°
2026-04-30 21:23 43.44789 5.19915 84 ft 146 kts 133°
2026-04-30 21:23 43.44125 5.20860 26 ft 122 kts 134°
2026-04-30 21:23 43.43374 5.21927 47 ft 28 kts 133°
2026-04-30 21:24 43.43334 5.22090 50 ft 16 kts 92°
2026-04-30 21:24 43.43347 5.22242 45 ft 15 kts 58°
2026-04-30 21:24 43.43441 5.22264 45 ft 15 kts 330°
2026-04-30 21:24 43.43531 5.22195 49 ft 14 kts 327°
2026-04-30 21:25 43.43700 5.22059 47 ft 14 kts 329°
2026-04-30 21:25 43.43792 5.21972 44 ft 18 kts 314°
2026-04-30 21:25 43.43884 5.21838 43 ft 20 kts 314°
2026-04-30 21:26 43.44022 5.21689 38 ft 8 kts 32°
2026-04-30 21:26 43.44051 5.21727 36 ft 0 kts 41°
2026-04-30 21:27 43.44054 5.21730 36 ft 0 kts 39°
2026-04-30 21:27 43.44068 5.21731 36 ft 4 kts 347°
2026-04-30 21:27 43.44092 5.21697 35 ft 6 kts 313°
2026-04-30 21:28 43.44129 5.21676 33 ft 0 kts 65°
2026-04-30 21:28 43.44127 5.21686 34 ft 2 kts 106°
2026-04-30 21:28 43.44126 5.21698 34 ft 0 kts 89°
2026-04-30 21:31 43.44212 5.21818 33 ft 0 kts 90°